星链-31325 (STARLINK-31325 )

导读 | 星芒AI

STARLINK-31325 是 SpaceX Starlink 卫星互联网项目中的一颗低轨卫星,属于第 11 批组网卫星(Batch 11)。该卫星于 2022 年 5 月 4 日由猎鹰 9 号火箭从肯尼迪航天中心发射升空,部署在约 550 公里的轨道高度,用于提供全球宽带互联网服务。Starlink 卫星采用先进通信技术,支持高速、低延迟连接,主要服务于偏远和网络覆盖不足地区。STARLINK-31325 在轨运行状态良好,是 Starlink 网络扩展和性能优化的重要组成部分。

基本信息
目录编号:
59165
目录名称:
STARLINK-31325
国际标识:
2024-044P
轨道中心:
EARTH
卫星名称:
星链-31325
卫星全名:
星链-31325 (STARLINK-31325 )
卫星状态:
在轨 (已飞行609 天)
发射日期:
2024-03-04 UTC
国别 :
美国 (US)
星等 :
--
轨道信息
数据来源 国际轨道数据
星历时间: 2025-11-02T19:47:36+0800
14小时前
查看轨道信息
半长轴: 6861.273km
偏心率: 0.000116
轨道倾角: 43.001°
近地点辐角 268.653°
升交点赤经 105.260°
平近点角 91.419°
近地点: 482.342km
远地点: 483.934km
周期: 94.269分钟
每日圈数: 15.275513
详细信息
固有亮度:
5
最大亮度:
0.3
卫星平台:
Starlink v2.0 mini
覆盖范围:
全球
运营商:
太空探索技术公司
运营商所在国:
美国
制造商(研发单位):
太空探索技术公司
制造商所在国:
美国
使用方式:
暂无
卫星简介
星链(Starlink)计划是由太空探索技术公司(SpaceX)提出的一个巨型低轨卫星互联网星座项目,计划在2019年至2024年间在太空搭建由约1.2万颗卫星组成的“星链”网络,其中1584颗将部署在地球上空550千米处的近地轨道,并从2020年开始工作。该卫星仍在工作。
2D轨道图
3D轨道图
轨道高度分析图
轨道倾角分析图
轨道综合分析图
查看轨道综合分析图